[[{"header":{"parameterUnit":"m.s-1","parameterCategory":1,"la1":30.2991,"la2":30.254,"lo1":-89.0895,"lo2":-89.0444,"dy":0.0017,"dx":0.0017,"nx":28,"ny":28,"refTime":"2023-05-26T21:00:00:Z","depth":0,"parameterNumber":2,"parameterNumberName":"U-component_of_WINDS"},"data":[0,0,0,0,0,0,0,0,0,0,0,0,0,0,0,0,0,0,0,0,0,0,0,0,0,0,0,0,0,0,0,0,0,0,0,0,0,0,0,0,0,0,0,0,0,0,0,0,0,0,0,0,0,0,0,0,0,0,-1.2336,-1.2335,0,-1.2234,-1.2233,-1.2232,-1.2127,-1.2125,-1.2124,-1.2123,-1.2019,-1.2018,-1.2016,0,0,0,0,0,0,0,0,0,0,0,0,0,-1.2442,-1.244,-1.2336,-1.2335,-1.2333,-1.2234,-1.2233,-1.2231,-1.2127,-1.2125,-1.2124,-1.2122,-1.2019,-1.2018,-1.2016,0,0,0,0,0,0,0,0,0,0,0,0,0,-1.2374,-1.244,-1.2336,-1.2269,-1.2262,-1.2234,-1.2233,-1.2231,-1.2127,-1.2125,-1.2123,-1.2121,-1.202,-1.2018,-1.2016,-1.2045,0,0,-1.2009,-1.2008,0,0,0,0,0,0,0,0,-1.2378,-1.237,-1.228,-1.2274,-1.2266,-1.2191,-1.2232,-1.2169,-1.2128,-1.2179,-1.2123,-1.212,-1.2078,-1.2071,-1.2056,-1.2041,-1.2036,-1.2009,-1.2008,-1.2007,-1.2006,0,0,0,0,0,0,0,-1.2382,-1.2374,-1.2295,-1.2279,-1.227,-1.2245,-1.2233,-1.2219,-1.2142,-1.2174,-1.2166,-1.2156,-1.2074,-1.2059,-1.2053,-1.2035,-1.2009,-1.2007,-1.2006,-1.2005,-1.204,-1.2043,0,0,0,0,0,0,-1.2397,-1.2378,-1.2299,-1.2292,-1.2318,-1.2245,-1.2231,-1.2217,-1.2141,-1.2128,-1.2158,-1.2151,-1.2063,-1.2056,-1.2049,-1.2081,-1.2007,-1.2005,-1.2004,-1.2038,-1.2041,-1.2043,0,0,0,0,0,0,-1.24,-1.2391,-1.2303,-1.2333,-1.232,-1.2245,-1.223,-1.2216,-1.2201,-1.2129,-1.2115,-1.2157,-1.2061,-1.2052,-1.2048,-1.2076,-1.2004,-1.2002,-1.2036,-1.2039,-1.2042,-1.2144,0,0,0,0,0,0,-1.2403,-1.2393,-1.2403,-1.2334,-1.2319,-1.2303,-1.2232,-1.2216,-1.2198,-1.2189,-1.2124,-1.2112,-1.2059,-1.2051,-1.2046,-1.2072,-1.2,-1.2033,-1.2037,-1.2041,-1.2138,-1.215,-1.2161,0,0,0,0,0,-1.2407,-1.2435,-1.2404,-1.2395,-1.233,-1.2305,-1.2296,-1.2235,-1.2201,-1.2211,-1.2164,-1.2114,-1.2073,-1.2052,-1.2044,-1.207,-1.2031,-1.2036,-1.2041,-1.2132,-1.2148,-1.2161,0,0,0,0,0,0,-1.2509,-1.2425,-1.2389,-1.2395,-1.2358,-1.2287,-1.2298,-1.2252,-1.2224,-1.2217,-1.2142,-1.2128,-1.2133,-1.21,-1.2078,-1.2096,-1.2045,-1.2049,-1.2117,-1.2131,-1.2143,-1.2151,-1.1998,0,0,0,0,0,-1.2532,-1.2518,-1.2445,-1.2458,-1.2441,-1.2373,-1.236,-1.2316,-1.2274,-1.2258,-1.2211,-1.2173,-1.2152,-1.2139,-1.2115,-1.2132,-1.2118,-1.2146,-1.2158,-1.2168,-1.2172,-1.2181,-1.2194,-1.206,-1.206,-1.206,0,0,-1.258,-1.2532,-1.2528,-1.2477,-1.2443,-1.2432,-1.236,-1.235,-1.2341,-1.2256,-1.225,-1.2214,-1.2167,-1.2174,-1.2174,-1.2147,-1.2206,-1.2174,-1.2183,-1.2182,-1.2188,-1.22,-1.2212,-1.2063,-1.2063,-1.2062,0,0,-1.2661,-1.2622,-1.263,-1.2597,-1.2547,-1.2501,-1.2503,-1.2439,-1.2413,-1.2405,-1.2341,-1.233,-1.2294,-1.2264,-1.2243,-1.2315,-1.2268,-1.2309,-1.2371,-1.238,-1.2391,-1.24,-1.2427,-1.2438,-1.2314,-1.2314,-1.2314,0,-1.2726,-1.2706,-1.2639,-1.2634,-1.2614,-1.2537,-1.2545,-1.2516,-1.2461,-1.245,-1.2419,-1.2375,-1.2337,-1.2337,-1.2354,-1.234,-1.2341,-1.2317,-1.2394,-1.2403,-1.241,-1.2436,-1.2446,-1.2319,-1.2319,-1.2318,-1.2318,0,-1.279,-1.2777,-1.2789,-1.2738,-1.272,-1.2721,-1.2655,-1.2645,-1.2603,-1.2561,-1.2556,-1.2508,-1.2474,-1.247,-1.2429,-1.2465,-1.245,-1.2408,-1.2356,-1.243,-1.2453,-1.2462,-1.2327,-1.2325,-1.2324,-1.2322,0,0,-1.2933,-1.2846,-1.2851,-1.2828,-1.2767,-1.2756,-1.2754,-1.2722,-1.2715,-1.2679,-1.2677,-1.265,-1.2611,-1.2589,-1.2543,-1.2551,-1.2614,-1.2508,-1.2506,-1.2532,-1.2653,-1.2687,-1.2699,-1.2582,-1.2583,-1.2584,-1.2658,0,-1.3005,-1.2997,-1.2938,-1.2948,-1.2936,-1.2863,-1.2861,-1.2825,-1.2786,-1.2771,-1.2727,-1.271,-1.2659,-1.2646,-1.265,-1.2605,-1.2638,-1.2599,-1.2581,-1.2581,-1.2597,-1.271,-1.2745,-1.2817,-1.2666,-1.2668,-1.2669,0,-1.3088,-1.3059,-1.3068,-1.3009,-1.3001,-1.3001,-1.2968,-1.2953,-1.2911,-1.2882,-1.2858,-1.2806,-1.2802,-1.2752,-1.2745,-1.272,-1.2709,-1.2686,-1.2687,-1.2685,-1.2631,-1.2713,-1.2838,-1.285,-1.2682,-1.2681,-1.268,0,-1.3195,-1.3157,-1.3158,-1.314,-1.307,-1.3072,-1.3043,-1.2998,-1.2983,-1.2953,-1.2943,-1.2913,-1.2898,-1.2876,-1.2819,-1.2787,-1.282,-1.2764,-1.2798,-1.28,-1.2809,-1.281,-1.2937,-1.2799,-1.2799,-1.2799,-1.2799,0,-1.3283,-1.3292,-1.3205,-1.3206,-1.3214,-1.3146,-1.3156,-1.312,-1.3081,-1.3074,-1.3008,-1.3004,-1.2928,-1.2915,-1.287,-1.2873,-1.2865,-1.2843,-1.2832,-1.285,-1.2854,-1.2844,-1.2838,-1.2801,-1.2801,-1.28,-1.28,0,-1.3403,-1.3345,-1.3342,-1.3276,-1.326,-1.327,-1.3214,-1.3212,-1.317,-1.3162,-1.3157,-1.309,-1.3072,-1.3012,-1.2978,-1.2948,-1.2966,-1.2942,-1.2981,-1.2974,-1.3011,-1.301,-1.3137,-1.3152,-1.3004,-1.3005,-1.3006,0,-1.3464,-1.347,-1.3405,-1.3396,-1.337,-1.3356,-1.3341,-1.3274,-1.326,-1.3213,-1.3218,-1.3194,-1.3172,-1.3146,-1.3095,-1.307,-1.3046,-1.3093,-1.3042,-1.3062,-1.305,-1.3051,-1.3053,-1.3105,-1.3107,-1.3108,-1.311,0,-1.358,-1.3551,-1.3531,-1.3502,-1.3485,-1.3459,-1.3428,-1.3425,-1.335,-1.3339,-1.332,-1.3302,-1.3269,-1.3247,-1.3213,-1.3184,-1.3136,-1.3126,-1.3133,-1.3153,-1.3176,-1.3167,-1.3013,-1.3124,-1.3122,-1.3121,-1.312,-1.312,-1.3674,-1.3676,-1.3632,-1.3612,-1.3582,-1.3556,-1.3552,-1.351,-1.3492,-1.346,-1.3421,-1.3407,-1.3366,-1.3316,-1.329,-1.3279,-1.3252,-1.3261,-1.3264,-1.3268,-1.3278,-1.3177,-1.3272,-1.3272,-1.3271,-1.3271,-1.3271,0,-1.3788,-1.3756,-1.3739,-1.3699,-1.3684,-1.3639,-1.3603,-1.3594,-1.3583,-1.3548,-1.3527,-1.3506,-1.3485,-1.3433,-1.3407,-1.3408,-1.3385,-1.3404,-1.3404,-1.3399,-1.3302,-1.33,-1.3423,-1.3423,-1.3423,-1.3423,-1.3423,-1.3423,-1.3846,-1.3848,-1.3815,-1.3802,-1.3769,-1.3755,-1.3739,-1.3715,-1.3687,-1.3667,-1.3649,-1.3615,-1.3574,-1.3544,-1.3524,-1.3509,-1.3503,-1.353,-1.3508,-1.342,-1.3405,-1.3391,-1.3389,-1.3529,-1.3529,-1.3606,-1.3607,-1.3607]},{"header":{"parameterUnit":"m.s-1","parameterCategory":1,"la1":30.2991,"la2":30.254,"lo1":-89.0895,"lo2":-89.0444,"dy":0.0017,"dx":0.0017,"nx":28,"ny":28,"refTime":"2023-05-26T21:00:00:Z","depth":0,"parameterNumber":3,"parameterNumberName":"V-component_of_WINDS"},"data":[0,0,0,0,0,0,0,0,0,0,0,0,0,0,0,0,0,0,0,0,0,0,0,0,0,0,0,0,0,0,0,0,0,0,0,0,0,0,0,0,0,0,0,0,0,0,0,0,0,0,0,0,0,0,0,0,0,0,2.015,2.015,0,2.0119,2.0119,2.0118,2.0116,2.0116,2.0116,2.0117,2.0078,2.0077,2.0076,0,0,0,0,0,0,0,0,0,0,0,0,0,2.0202,2.0201,2.015,2.015,2.0149,2.0119,2.0119,2.0118,2.0116,2.0116,2.0117,2.0117,2.0079,2.0077,2.0076,0,0,0,0,0,0,0,0,0,0,0,0,0,2.0176,2.0201,2.015,2.0145,2.0144,2.0119,2.0119,2.0118,2.0116,2.0116,2.0117,2.0117,2.0079,2.0077,2.0075,2.0052,0,0,2.0069,2.0068,0,0,0,0,0,0,0,0,2.0178,2.0174,2.0146,2.0145,2.0144,2.0122,2.0123,2.0096,2.0115,2.0126,2.0117,2.0117,2.0092,2.0089,2.0082,2.005,2.0049,2.0069,2.0068,2.0067,2.0066,0,0,0,0,0,0,0,2.0179,2.0176,2.0138,2.0145,2.0144,2.0142,2.0139,2.0118,2.0106,2.0125,2.0125,2.0122,2.0092,2.0084,2.0081,2.0048,2.0069,2.0067,2.0066,2.0065,1.9995,1.9995,0,0,0,0,0,0,2.0183,2.0177,2.0139,2.0137,2.0163,2.0141,2.0137,2.0128,2.0107,2.0104,2.0121,2.0122,2.0087,2.0083,2.0079,2.005,2.0067,2.0065,2.0064,1.9996,1.9995,1.9994,0,0,0,0,0,0,2.0184,2.018,2.014,2.0157,2.0152,2.0139,2.0129,2.0127,2.012,2.0104,2.0101,2.0116,2.0087,2.0082,2.0059,2.0049,2.0064,2.0062,1.9997,1.9996,1.9995,1.9991,0,0,0,0,0,0,2.0186,2.018,2.0172,2.0157,2.0151,2.0122,2.0129,2.0127,2.0117,2.0117,2.0098,2.0095,2.0087,2.0062,2.0057,2.0046,2.0061,1.9997,1.9996,1.9995,1.9992,1.999,1.9989,0,0,0,0,0,2.0188,2.0172,2.0172,2.0167,2.0141,2.0121,2.0118,2.0111,2.0116,2.0107,2.0097,2.0095,2.0051,2.006,2.0054,2.0042,1.9998,1.9997,1.9995,1.9993,1.9991,1.9989,0,0,0,0,0,0,2.0184,2.0169,2.017,2.0148,2.0137,2.0121,2.011,2.0109,2.0093,2.0094,2.0085,2.008,2.0057,2.0048,2.0058,2.0018,2.0025,2.0022,2.0025,2.0023,2.0021,2.0023,2.0059,0,0,0,0,0,2.0181,2.0168,2.0155,2.0138,2.0132,2.0122,2.0113,2.0109,2.0095,2.009,2.0078,2.0063,2.0045,2.0034,2.0017,1.9992,1.9986,1.9981,1.9979,1.9977,1.9974,1.9959,1.9956,1.999,1.999,1.999,0,0,2.0174,2.0165,2.0156,2.0137,2.0127,2.0112,2.0117,2.0101,2.0089,2.0086,2.0064,2.0055,2.0038,2.0013,2.0002,2.0004,1.9964,1.9976,1.9975,1.9972,1.9957,1.9954,1.9951,1.9989,1.9989,1.9989,0,0,2.0153,2.0146,2.013,2.0121,2.0106,2.01,2.0096,2.0081,2.0076,2.0054,2.0051,2.0036,2.0007,1.9995,1.9984,1.996,1.9957,1.9955,1.9945,1.993,1.9927,1.9925,1.9914,1.9911,1.9952,1.9952,1.9952,0,2.0146,2.0125,2.0121,2.0105,2.0096,2.0096,2.0078,2.0069,2.0049,2.0042,2.0046,2.0009,1.9997,1.997,1.9964,1.9956,1.995,1.9956,1.9928,1.9926,1.9923,1.9913,1.991,1.9952,1.9952,1.9952,1.9952,0,2.0115,2.0101,2.0089,2.0073,2.0062,2.0046,2.0038,2.0028,2.0025,2.0018,1.9995,1.9981,1.9962,1.9955,1.9952,1.9926,1.9928,1.9931,1.9936,1.992,1.991,1.9907,1.9952,1.9952,1.9952,1.9952,0,0,2.0089,2.0072,2.0068,2.006,2.0045,2.0033,2.0016,1.9999,1.9989,1.9976,1.996,1.9936,1.9938,1.9927,1.9922,1.9909,1.9889,1.9913,1.9912,1.9907,1.9859,1.9856,1.9852,1.9889,1.9888,1.9887,1.986,0,2.0066,2.0038,2.0034,2.0008,1.9994,1.9994,1.9979,1.9967,1.996,1.9945,1.9937,1.992,1.9925,1.9917,1.9905,1.9895,1.9879,1.9897,1.9871,1.987,1.9874,1.9847,1.9844,1.9819,1.9856,1.9856,1.9855,0,2.0034,2.0022,1.9995,1.9982,1.9976,1.9963,1.9947,1.9934,1.992,1.9915,1.9903,1.99,1.9881,1.989,1.9862,1.9874,1.9863,1.9857,1.9855,1.9851,1.986,1.984,1.9811,1.9806,1.985,1.985,1.985,0,2.0015,1.9993,1.9973,1.9967,1.9952,1.9942,1.9935,1.9923,1.9912,1.9898,1.9891,1.9874,1.9863,1.9849,1.9841,1.9849,1.9813,1.9821,1.9807,1.9807,1.9797,1.9798,1.9764,1.9794,1.9794,1.9794,1.9794,0,1.9988,1.9971,1.9965,1.9953,1.9934,1.993,1.991,1.9903,1.9892,1.9877,1.9876,1.9862,1.9853,1.9837,1.983,1.9807,1.9803,1.9797,1.9795,1.9796,1.9796,1.9787,1.9788,1.9793,1.9794,1.9794,1.9794,0,1.9963,1.9959,1.9938,1.9926,1.9923,1.9909,1.9898,1.9885,1.988,1.9861,1.9856,1.9846,1.9827,1.9818,1.9794,1.9789,1.9763,1.9763,1.9768,1.9766,1.9752,1.9753,1.9709,1.9702,1.9739,1.9739,1.9739,0,1.9945,1.9932,1.992,1.9911,1.9904,1.989,1.988,1.9876,1.9865,1.9849,1.9838,1.982,1.9805,1.9774,1.9763,1.9745,1.9743,1.9729,1.974,1.9741,1.974,1.974,1.9738,1.9726,1.9726,1.9726,1.9725,0,1.9912,1.9911,1.9898,1.9885,1.9874,1.9862,1.9851,1.9843,1.9837,1.9825,1.9807,1.9795,1.9772,1.9753,1.9734,1.9725,1.9723,1.9723,1.9718,1.9717,1.972,1.9717,1.976,1.9723,1.9723,1.9723,1.9723,1.9724,1.9889,1.9877,1.9867,1.9852,1.9844,1.9834,1.9821,1.9815,1.9801,1.9783,1.9781,1.9761,1.9747,1.9722,1.9712,1.9695,1.9698,1.9691,1.9689,1.9687,1.9685,1.9725,1.9692,1.9692,1.9692,1.9692,1.9692,0,1.9854,1.9849,1.9836,1.9821,1.9809,1.9812,1.98,1.9789,1.9772,1.9761,1.9747,1.9725,1.9707,1.9696,1.9677,1.9665,1.9664,1.966,1.966,1.9657,1.9685,1.969,1.9662,1.9662,1.9662,1.9662,1.9662,1.9662,1.9835,1.9815,1.9813,1.9789,1.9783,1.9765,1.9757,1.9747,1.9738,1.9715,1.9701,1.9695,1.9682,1.9663,1.9646,1.9643,1.9635,1.9631,1.9627,1.9652,1.9655,1.9658,1.9663,1.9629,1.9629,1.9601,1.96,1.96]}]]